Terminal Aerodrome Forecast
Issued by NWS Milwaukee/Sullivan, WI

Home | Current Version | Previous Version | Text Only | Print | Product List | Glossary On
Versions: 1 2 3 4 5 6 7 8 9 10 11 12 13 14 15 16 17 18 19 20 21 22 23 24 25 26 27 28 29 30 31 32 33 34 35 36 37 38 39 40 41 42 43 44 45 46 47 48 49 50
000
FTUS43 KMKX 142320
TAFMKE
TAF
KMKE 142320Z 1500/1606 21007KT P6SM FEW045 BKN120
     FM151000 25008KT P6SM BKN050
     FM151400 VRB03KT P6SM -SHRA OVC035
     FM151600 02005KT 6SM -SHRA OVC019
     FM152000 35011KT P6SM VCSH OVC022
     FM152200 34007KT P6SM OVC040
     FM160200 31005KT P6SM SCT050=

USA.gov is the U.S. government's official web portal to all federal, state and local government web resources and services.